SCP
0 0 0 0 0 0 0 0 0 0 0 0 0 0 0 -0 -0 -0 -0 0 0 0 0 0 0 0 0 0 0 0 0 1 0 1 0 0 0 0
0 0 0 0 0 0 0 0 0 0 0 0 0 0 0 0 0 -0 -0 0 0 0 0 0 0 0 0 0 0 0 0 0 0 1 0 0 0 0
0 0 0 0 0 0 0 0 0 0 0 0 0 0 0 0 0 0 -0 0 0 0 0 0 0 0 0 0 0 0 1 0 0 0 0 0 0 0
0 0 0 0 0 0 0 0 0 0 0 0 0 0 0 0 0 0 0 0 0 0 0 0 0 0 0 0 0 0 0 0 0 0 0 0 0 0
0 -0 -0 0 0 0 0 0 0 0 0 0 0 0 0 0 0 0 0 0 0 0 0 0 0 0 0 0 0 0 0 0 0 0 0 0 0 0
-0 0 -0 -0 -0 0 0 0 0 0 0 0 0 0 0 0 0 0 0 0 0 0 0 0 0 0 0 0 0 0 0 0 0 0 0 0 0 0
0 -0 0 0 0 -0 -0 -0 -0 -0 -0 0 0 0 0 0 0 0 0 0 0 0 0 0 0 0 0 0 0 0 0 0 0 0 0 0 0 0
0 0 -0 -0 -0 -0 -0 -0 -0 -0 -0 -0 -0 0 0 0 0 0 0 0 0 0 0 0 0 0 0 0 0 0 0 0 0 0 0 0 0 0
0 0 0 0 -0 -0 -0 0 0 0 0 -0 -0 0 0 0 0 0 0 0 0 0 0 0 0 0 0 0 0 0 0 0 0 0 0 0 0 0
0 0 0 0 -0 -0 -0 -0 -0 -0 -0 -0 -0 0 -0 0 -0 0 0 0 0 0 0 0 0 0 0 0 0 0 0 0 0 0 0 0 0 0
0 0 0 -0 -0 -0 -0 -0 -0 -0 -0 0 -0 -0 -0 -0 -0 0 0 0 0 0 0 0 0 0 0 0 0 0 0 0 0 0 0 0 0 0
-0 -0 -0 -0 -0 -0 -0 -0 -0 -0 -0 -0 -0 -0 -0 -0 -0 -0 0 0 0 0 0 0 0 0 0 0 0 0 0 0 0 0 0 0 0 0
-0 -0 0 -0 -0 -0 -0 -0 -0 0 -0 -0 -0 0 -0 0 0 0 0 0 0 0 0 0 0 0 0 0 0 0 0 0 0 0 0 0 0 0
-0 -0 -0 -0 -0 -0 -0 -0 -0 -0 0 -0 -0 -0 -0 0 0 0 0 0 0 0 0 0 0 0 0 0 0 0 0 0 0 0 0 0 0 0
-0 0 -0 -0 -0 0 0 -0 -0 0 0 0 0 0 0 0 0 0 0 0 0 0 0 0 0 0 0 0 0 0 0 0 0 0 0 0 0 0
0 0 0 -0 -0 -0 0 0 -0 0 -0 -0 0 0 0 0 0 0 0 0 0 0 0 0 0 0 0 0 0 0 0 0 0 0 0 0 0 0
0 0 0 0 0 0 0 0 0 0 0 0 0 0 0 0 0 0 0 0 0 0 0 0 0 0 0 0 0 0 0 0 0 0 0 0 0 0
0 0 0 0 0 0 0 0 0 0 0 -0 -0 -0 -0 -0 -0 -0 0 0 0 0 0 0 0 0 0 0 0 0 0 0 0 0 0 0 0 0
0 0 0 0 0 0 0 0 0 0 0 0 0 0 0 -0 -0 -0 -0 -0 -0 -0 -0 -0 0 0 0 0 0 0 0 0 0 0 0 0 0 0
0 0 0 0 0 0 0 0 0 0 0 0 0 0 0 0 0 0 0 0 0 0 0 0 0 0 -0 -0 -0 -0 -0 0 0 0 0 -0 -0 0
0 0 0 0 0 0 0 0 0 0 0 0 0 0 0 0 0 0 0 0 0 0 0 0 0 0 0 0 0 0 0 -0 -0 0 0 -0 0 0
0 0 0 0 0 0 0 0 0 0 0 0 0 0 0 0 0 0 0 0 0 0 0 0 0 0 0 0 0 0 0 0 -0 -0 -0 -0 0 -0
0 0 0 0 0 0 0 0 0 0 0 0 0 0 0 0 0 0 0 0 0 0 0 0 0 0 0 0 0 0 0 0 0 0 0 -0 -0 -0
Wind_Speed_500mb
51 51 62 51 51 61 60 58 54 52 63 65 61 58 53 52 58 64 70 68 70 70 70 74 76 89 87 81 85 80 80 81 89 100 95 83 94 93
61 50 49 45 52 50 49 60 60 60 64 56 50 54 54 54 54 60 67 73 74 75 77 76 77 75 87 83 83 84 75 76 80 85 88 89 112 101
45 46 64 67 46 55 54 56 67 69 74 66 57 54 58 53 48 50 60 63 62 68 74 73 78 76 75 82 79 80 77 75 88 93 108 114 117 88
41 44 49 46 54 67 48 65 51 52 66 61 54 55 56 51 44 53 58 60 59 64 68 70 74 74 70 75 76 82 80 79 88 90 106 106 90 82
38 40 40 39 48 45 59 57 44 52 45 53 51 56 52 55 56 56 52 59 60 52 47 66 73 68 72 76 82 77 76 86 96 104 107 96 88 79
31 36 36 36 42 40 38 47 53 51 49 54 52 51 50 49 53 49 43 37 19 17 26 35 41 49 53 65 76 92 106 109 109 106 103 94 79 73
35 33 29 29 31 38 39 41 43 45 47 49 49 56 57 60 52 42 38 28 38 56 64 59 66 65 74 88 104 104 102 83 73 76 78 83 65 57
12 19 23 23 26 30 35 37 40 43 50 55 61 66 60 50 48 39 38 42 41 60 76 76 76 83 70 73 69 67 63 56 47 41 44 55 51 44
12 13 17 20 22 30 35 44 50 55 53 52 54 64 63 57 49 43 48 49 49 53 69 80 74 80 61 48 48 51 51 48 46 41 27 38 29 28
10 12 18 20 30 33 35 39 44 47 49 48 51 54 54 53 56 55 54 60 57 55 58 67 57 70 63 54 57 51 43 41 34 33 24 23 18 14
27 4 9 14 16 30 33 23 21 25 24 13 5 10 15 35 45 52 60 61 55 49 52 54 47 54 47 44 45 39 39 44 37 29 22 15 15 4
81 69 55 47 34 37 47 52 60 56 59 63 64 62 57 62 68 63 56 57 53 41 46 56 54 47 47 36 41 34 37 36 24 20 15 10 9 11
82 76 69 64 61 59 59 61 64 60 63 66 68 65 58 51 47 42 42 46 49 47 38 41 29 18 37 37 33 25 22 22 16 11 5 5 3 9
77 70 64 60 58 57 57 55 56 57 59 59 59 60 60 58 52 48 43 40 38 33 30 32 35 41 50 46 37 25 24 24 16 6 1 2 6 10
66 60 58 58 58 56 50 52 58 58 59 60 58 54 49 46 45 43 42 38 40 38 29 22 22 25 23 23 28 20 20 16 11 8 6 5 9 10
61 59 61 61 58 59 59 59 57 57 61 60 53 47 41 38 36 32 32 33 36 37 30 24 18 12 20 20 14 11 7 1 8 9 9 12 17 17
62 65 66 66 66 64 63 61 55 54 54 53 52 50 49 49 47 40 40 39 42 39 40 37 30 23 24 19 14 7 2 7 11 11 12 12 13 14
66 68 66 63 62 60 57 55 51 48 46 44 43 42 42 40 36 31 28 31 34 33 30 26 19 16 25 32 28 23 16 12 9 8 10 9 13 14
70 66 63 59 56 54 51 47 45 42 39 41 41 38 35 33 29 30 28 30 32 31 30 25 22 21 24 33 29 26 25 23 19 16 17 17 12 15
63 60 57 54 52 50 48 49 48 45 43 42 41 40 40 40 41 42 39 36 32 28 24 23 23 24 29 31 27 29 27 23 24 22 14 13 13 13
57 57 53 52 50 49 48 48 49 48 46 46 44 43 41 41 42 39 36 37 35 34 34 34 28 23 21 24 21 22 20 20 23 27 31 25 20 31
54 52 50 49 49 47 46 46 46 46 46 46 44 43 42 42 43 41 40 38 39 39 40 39 32 27 27 29 30 26 25 22 24 28 30 33 33 25
55 52 50 49 47 46 45 44 44 44 43 42 40 38 37 38 36 36 37 37 34 30 26 26 30 31 32 32 34 36 30 27 28 29 29 29 29 27
Wind_Direction_500mb
235 245 247 248 248 247 245 246 250 257 261 261 267 271 280 280 271 272 274 275 271 265 258 249 246 249 245 242 238 237 235 237 240 225 230 231 231 238
244 229 234 236 242 243 243 240 246 252 263 267 266 278 287 287 276 281 278 274 273 270 259 252 245 249 244 240 238 236 235 234 230 220 228 222 226 231
238 248 242 232 236 236 240 242 247 250 255 263 271 279 283 284 287 292 287 282 275 269 259 252 242 241 244 238 235 234 233 229 230 226 205 206 217 233
240 246 243 242 256 243 246 237 248 259 254 256 267 275 279 286 291 299 303 295 292 283 255 247 239 237 239 233 230 233 231 228 227 216 204 212 220 223
247 249 250 240 240 237 243 247 253 253 250 256 265 274 279 283 288 291 295 289 282 273 262 235 227 232 232 227 227 226 220 219 217 212 211 214 222 228
240 236 243 245 244 245 241 240 238 251 256 259 260 267 273 286 291 280 284 264 200 197 134 187 192 214 212 209 204 197 191 199 199 201 205 211 220 223
244 245 243 242 244 236 239 246 240 246 248 252 257 264 272 279 272 266 252 210 126 141 120 140 150 150 145 173 174 166 170 165 169 184 196 208 210 217
253 230 246 235 241 241 239 238 240 253 257 259 264 266 268 264 264 244 215 156 102 128 112 116 129 131 129 134 135 137 137 136 144 155 182 189 200 204
198 217 229 236 236 243 247 247 253 258 259 261 261 260 260 256 244 218 183 173 132 118 115 108 107 108 113 111 118 128 130 136 145 157 157 160 170 195
292 213 229 243 232 240 235 246 255 265 264 257 254 255 261 242 210 193 165 146 132 123 116 107 103 104 110 107 116 114 121 123 125 131 145 153 163 204
90 119 164 179 177 227 233 175 138 95 74 71 147 184 196 178 181 167 141 136 125 121 120 109 106 100 104 103 102 112 109 111 108 115 104 116 132 196
71 68 67 78 93 118 115 111 106 105 111 111 114 117 125 136 149 151 145 135 128 118 121 114 113 108 93 87 92 105 104 98 113 122 143 137 122 234
73 73 74 78 83 90 100 103 104 109 106 106 104 104 108 114 113 116 121 119 119 121 126 121 112 106 109 99 87 94 101 115 107 92 61 78 243 278
73 75 73 73 77 83 89 95 100 101 101 100 100 99 101 105 105 104 102 99 100 102 109 104 121 129 129 125 113 108 110 111 131 132 204 333 317 294
76 77 80 80 81 79 82 90 97 98 99 96 95 97 100 105 107 106 105 106 105 103 99 101 117 127 136 135 141 137 107 103 92 69 340 337 319 314
87 81 83 83 84 90 90 89 86 90 93 96 97 101 105 103 99 104 112 113 106 95 94 95 92 103 127 124 126 132 183 205 27 18 0 347 333 339
93 90 88 87 87 87 87 88 88 90 90 93 96 96 96 99 101 104 106 107 100 92 84 80 81 91 91 95 99 94 55 3 352 348 352 337 331 342
81 80 80 81 83 85 87 87 88 89 91 94 94 93 93 95 99 96 93 90 87 82 79 75 76 85 80 70 65 57 57 49 40 45 32 18 1 358
78 78 77 77 78 80 82 84 88 91 94 92 93 94 95 95 93 89 89 89 88 86 81 81 76 70 76 73 61 53 54 54 51 51 42 28 19 12
73 73 74 75 76 77 80 82 83 87 90 92 91 89 89 90 89 86 85 85 83 81 77 73 68 69 82 83 73 52 45 47 47 44 41 45 36 40
69 71 71 72 73 74 75 77 79 79 82 85 85 86 87 89 90 90 91 90 88 85 81 77 76 83 83 80 68 58 50 51 51 40 37 46 47 38
68 70 72 73 74 73 75 76 76 75 74 76 78 80 81 82 82 82 79 75 73 72 75 79 77 72 70 69 67 67 68 61 60 69 52 36 31 22
65 67 70 70 71 73 75 76 75 77 75 75 74 75 77 79 80 81 79 77 75 73 70 73 75 66 62 70 77 84 82 72 66 66 56 50 42 38
Wind_Speed_850mb
51 51 62 51 51 61 60 58 54 52 63 65 61 58 53 52 58 64 70 68 70 70 70 74 76 89 87 81 85 80 80 81 89 100 95 83 94 93
61 50 49 45 52 50 49 60 60 60 64 56 50 54 54 54 54 60 67 73 74 75 77 76 77 75 87 83 83 84 75 76 80 85 88 89 112 101
45 46 64 67 46 55 54 56 67 69 74 66 57 54 58 53 48 50 60 63 62 68 74 73 78 76 75 82 79 80 77 75 88 93 108 114 117 88
41 44 49 46 54 67 48 65 51 52 66 61 54 55 56 51 44 53 58 60 59 64 68 70 74 74 70 75 76 82 80 79 88 90 106 106 90 82
38 40 40 39 48 45 59 57 44 52 45 53 51 56 52 55 56 56 52 59 60 52 47 66 73 68 72 76 82 77 76 86 96 104 107 96 88 79
31 36 36 36 42 40 38 47 53 51 49 54 52 51 50 49 53 49 43 37 19 17 26 35 41 49 53 65 76 92 106 109 109 106 103 94 79 73
35 33 29 29 31 38 39 41 43 45 47 49 49 56 57 60 52 42 38 28 38 56 64 59 66 65 74 88 104 104 102 83 73 76 78 83 65 57
12 19 23 23 26 30 35 37 40 43 50 55 61 66 60 50 48 39 38 42 41 60 76 76 76 83 70 73 69 67 63 56 47 41 44 55 51 44
12 13 17 20 22 30 35 44 50 55 53 52 54 64 63 57 49 43 48 49 49 53 69 80 74 80 61 48 48 51 51 48 46 41 27 38 29 28
10 12 18 20 30 33 35 39 44 47 49 48 51 54 54 53 56 55 54 60 57 55 58 67 57 70 63 54 57 51 43 41 34 33 24 23 18 14
27 4 9 14 16 30 33 23 21 25 24 13 5 10 15 35 45 52 60 61 55 49 52 54 47 54 47 44 45 39 39 44 37 29 22 15 15 4
81 69 55 47 34 37 47 52 60 56 59 63 64 62 57 62 68 63 56 57 53 41 46 56 54 47 47 36 41 34 37 36 24 20 15 10 9 11
82 76 69 64 61 59 59 61 64 60 63 66 68 65 58 51 47 42 42 46 49 47 38 41 29 18 37 37 33 25 22 22 16 11 5 5 3 9
77 70 64 60 58 57 57 55 56 57 59 59 59 60 60 58 52 48 43 40 38 33 30 32 35 41 50 46 37 25 24 24 16 6 1 2 6 10
66 60 58 58 58 56 50 52 58 58 59 60 58 54 49 46 45 43 42 38 40 38 29 22 22 25 23 23 28 20 20 16 11 8 6 5 9 10
61 59 61 61 58 59 59 59 57 57 61 60 53 47 41 38 36 32 32 33 36 37 30 24 18 12 20 20 14 11 7 1 8 9 9 12 17 17
62 65 66 66 66 64 63 61 55 54 54 53 52 50 49 49 47 40 40 39 42 39 40 37 30 23 24 19 14 7 2 7 11 11 12 12 13 14
66 68 66 63 62 60 57 55 51 48 46 44 43 42 42 40 36 31 28 31 34 33 30 26 19 16 25 32 28 23 16 12 9 8 10 9 13 14
70 66 63 59 56 54 51 47 45 42 39 41 41 38 35 33 29 30 28 30 32 31 30 25 22 21 24 33 29 26 25 23 19 16 17 17 12 15
63 60 57 54 52 50 48 49 48 45 43 42 41 40 40 40 41 42 39 36 32 28 24 23 23 24 29 31 27 29 27 23 24 22 14 13 13 13
57 57 53 52 50 49 48 48 49 48 46 46 44 43 41 41 42 39 36 37 35 34 34 34 28 23 21 24 21 22 20 20 23 27 31 25 20 31
54 52 50 49 49 47 46 46 46 46 46 46 44 43 42 42 43 41 40 38 39 39 40 39 32 27 27 29 30 26 25 22 24 28 30 33 33 25
55 52 50 49 47 46 45 44 44 44 43 42 40 38 37 38 36 36 37 37 34 30 26 26 30 31 32 32 34 36 30 27 28 29 29 29 29 27
Wind_Direction_850mb
235 245 247 248 248 247 245 246 250 257 261 261 267 271 280 280 271 272 274 275 271 265 258 249 246 249 245 242 238 237 235 237 240 225 230 231 231 238
244 229 234 236 242 243 243 240 246 252 263 267 266 278 287 287 276 281 278 274 273 270 259 252 245 249 244 240 238 236 235 234 230 220 228 222 226 231
238 248 242 232 236 236 240 242 247 250 255 263 271 279 283 284 287 292 287 282 275 269 259 252 242 241 244 238 235 234 233 229 230 226 205 206 217 233
240 246 243 242 256 243 246 237 248 259 254 256 267 275 279 286 291 299 303 295 292 283 255 247 239 237 239 233 230 233 231 228 227 216 204 212 220 223
247 249 250 240 240 237 243 247 253 253 250 256 265 274 279 283 288 291 295 289 282 273 262 235 227 232 232 227 227 226 220 219 217 212 211 214 222 228
240 236 243 245 244 245 241 240 238 251 256 259 260 267 273 286 291 280 284 264 200 197 134 187 192 214 212 209 204 197 191 199 199 201 205 211 220 223
244 245 243 242 244 236 239 246 240 246 248 252 257 264 272 279 272 266 252 210 126 141 120 140 150 150 145 173 174 166 170 165 169 184 196 208 210 217
253 230 246 235 241 241 239 238 240 253 257 259 264 266 268 264 264 244 215 156 102 128 112 116 129 131 129 134 135 137 137 136 144 155 182 189 200 204
198 217 229 236 236 243 247 247 253 258 259 261 261 260 260 256 244 218 183 173 132 118 115 108 107 108 113 111 118 128 130 136 145 157 157 160 170 195
292 213 229 243 232 240 235 246 255 265 264 257 254 255 261 242 210 193 165 146 132 123 116 107 103 104 110 107 116 114 121 123 125 131 145 153 163 204
90 119 164 179 177 227 233 175 138 95 74 71 147 184 196 178 181 167 141 136 125 121 120 109 106 100 104 103 102 112 109 111 108 115 104 116 132 196
71 68 67 78 93 118 115 111 106 105 111 111 114 117 125 136 149 151 145 135 128 118 121 114 113 108 93 87 92 105 104 98 113 122 143 137 122 234
73 73 74 78 83 90 100 103 104 109 106 106 104 104 108 114 113 116 121 119 119 121 126 121 112 106 109 99 87 94 101 115 107 92 61 78 243 278
73 75 73 73 77 83 89 95 100 101 101 100 100 99 101 105 105 104 102 99 100 102 109 104 121 129 129 125 113 108 110 111 131 132 204 333 317 294
76 77 80 80 81 79 82 90 97 98 99 96 95 97 100 105 107 106 105 106 105 103 99 101 117 127 136 135 141 137 107 103 92 69 340 337 319 314
87 81 83 83 84 90 90 89 86 90 93 96 97 101 105 103 99 104 112 113 106 95 94 95 92 103 127 124 126 132 183 205 27 18 0 347 333 339
93 90 88 87 87 87 87 88 88 90 90 93 96 96 96 99 101 104 106 107 100 92 84 80 81 91 91 95 99 94 55 3 352 348 352 337 331 342
81 80 80 81 83 85 87 87 88 89 91 94 94 93 93 95 99 96 93 90 87 82 79 75 76 85 80 70 65 57 57 49 40 45 32 18 1 358
78 78 77 77 78 80 82 84 88 91 94 92 93 94 95 95 93 89 89 89 88 86 81 81 76 70 76 73 61 53 54 54 51 51 42 28 19 12
73 73 74 75 76 77 80 82 83 87 90 92 91 89 89 90 89 86 85 85 83 81 77 73 68 69 82 83 73 52 45 47 47 44 41 45 36 40
69 71 71 72 73 74 75 77 79 79 82 85 85 86 87 89 90 90 91 90 88 85 81 77 76 83 83 80 68 58 50 51 51 40 37 46 47 38
68 70 72 73 74 73 75 76 76 75 74 76 78 80 81 82 82 82 79 75 73 72 75 79 77 72 70 69 67 67 68 61 60 69 52 36 31 22
65 67 70 70 71 73 75 76 75 77 75 75 74 75 77 79 80 81 79 77 75 73 70 73 75 66 62 70 77 84 82 72 66 66 56 50 42 38